{"data":{"norad_id":63226,"epoch":"2026-09-22T16:48:05.113152Z","epoch_age_seconds":118829,"freshness":"FRESH","line1":"1 63226U 25052S   26265.70005918  .00002625  00000+0  11554-3 0  9997","line2":"2 63226  97.3812 156.5900 0005923 143.6599 216.5041 15.22710930 84677","mean_motion":15.2271093,"eccentricity":0.0005923,"inclination_deg":97.3812,"raan_deg":156.59,"arg_perigee_deg":143.6599,"mean_anomaly_deg":216.5041,"bstar":0.00011554,"rev_number":8467,"period_min":94.568179135616,"perigee_km":493.59514091943,"apogee_km":501.7402191434,"semimajor_km":6875.8046800314,"source":"CELESTRAK","updated_at":"2026-09-23T09:00:21.902311Z"}}